DW8847 Weather Reports


Display with metric or nautical units.
time (UTC)temp
F
wind
direction
speed
MPH
gust
MPH
rain 1hr
in
rain 24hr
in
rain mn
in
humidity
%
barometer
mb
20260905154520 89 70 0.0 1.0 0.00 0.00 0.00 47 1014.8
20260905153027 89 70 0.0 2.0 0.00 0.00 0.00 47 1014.6
20260905151520 88 70 0.0 2.0 0.00 0.00 0.00 46 1014.6
20260905150024 88 49 0.0 3.0 0.00 0.00 0.00 47 1014.6
20260905144519 89 49 0.0 2.0 0.00 0.00 0.00 44 1014.6
20260905143025 89 56 1.0 4.0 0.00 0.00 0.00 44 1014.6
20260905141518 88 30 0.0 3.0 0.00 0.00 0.00 47 1014.6
20260905140018 89 49 0.0 2.0 0.00 0.00 0.00 44 1014.8
20260905134526 89 61 0.0 3.0 0.00 0.00 0.00 44 1014.7
20260905133016 88 43 0.0 4.0 0.00 0.00 0.00 44 1014.8
20260905131515 89 96 1.0 3.0 0.00 0.00 0.00 42 1014.9
20260905130014 90 96 0.0 2.0 0.00 0.00 0.00 43 1015.0
20260905124520 88 51 1.0 5.0 0.00 0.00 0.00 46 1015.1
20260905123036 89 57 1.0 8.0 0.00 0.00 0.00 45 1015.3
20260905121515 88 42 0.0 4.0 0.00 0.00 0.00 48 1015.2
20260905120009 88 80 0.0 2.0 0.00 0.00 0.00 47 1015.4
20260905114508 89 60 0.0 2.0 0.00 0.00 0.00 47 1015.4
20260905113006 86 60 0.0 2.0 0.00 0.00 0.00 51 1015.5
20260905111506 86 60 0.0 4.0 0.00 0.00 0.00 51 1015.6
20260905110006 88 61 0.0 3.0 0.00 0.00 0.00 53 1015.6
20260905104502 86 38 0.0 5.0 0.00 0.00 0.00 53 1015.7
20260905103105 85 68 0.0 4.0 0.00 0.00 0.00 57 1015.7
20260905101559 85 90 1.0 3.0 0.00 0.00 0.00 59 1015.9
20260905100106 84 22 0.0 3.0 0.00 0.00 0.00 63 1015.9
20260905094555 81 63 0.0 3.0 0.00 0.00 0.00 65 1015.8
20260905093054 82 53 0.0 3.0 0.00 0.00 0.00 65 1015.8
20260905091555 82 63 0.0 3.0 0.00 0.00 0.00 64 1015.8
20260905090053 81 68 0.0 2.0 0.00 0.00 0.00 66 1015.7
20260905084604 81 59 1.0 3.0 0.00 0.00 0.00 67 1015.6
20260905083050 80 21 1.0 3.0 0.00 0.00 0.00 67 1015.6
20260905081548 81 22 0.0 4.0 0.00 0.00 0.00 67 1015.5
20260905080112 81 67 1.0 4.0 0.00 0.00 0.00 68 1015.4
20260905074543 80 57 1.0 3.0 0.00 0.00 0.00 68 1015.3
20260905073041 79 40 0.0 2.0 0.00 0.00 0.00 71 1015.1
20260905071537 77 40 0.0 3.0 0.00 0.00 0.00 73 1015.0
20260905070039 75 36 1.0 3.0 0.00 0.00 0.00 78 1015.1
20260905064528 73 35 1.0 2.0 0.00 0.00 0.00 81 1015.2
20260905063024 72 29 0.0 2.0 0.00 0.00 0.00 84 1015.1
20260905061525 71 29 1.0 2.0 0.00 0.00 0.00 84 1015.0
20260905060038 71 207 0.0 2.0 0.00 0.00 0.00 86 1015.1
20260905054516 69 206 0.0 0.0 0.00 0.00 0.00 88 1015.1
20260905053013 67 205 0.0 0.0 0.00 0.00 0.00 89 1014.7
20260905051512 66 205 0.0 0.0 0.00 0.00 0.00 90 1014.6
20260905050007 65 205 0.0 0.0 0.00 0.00 0.00 90 1014.8
20260905044508 65 205 0.0 0.0 0.00 0.00 0.00 91 1014.7
20260905043003 64 205 0.0 0.0 0.00 0.00 0.00 90 1014.7
20260905041503 65 205 0.0 0.0 0.00 0.00 0.00 90 1014.7
20260905040003 65 205 0.0 0.0 0.00 0.00 0.00 90 1014.7
20260905034602 65 205 0.0 0.0 0.00 0.00 0.00 89 1014.7
20260905033058 66 205 0.0 0.0 0.00 0.00 0.00 89 1014.7
20260905031558 66 205 0.0 0.0 0.00 0.00 0.00 89 1014.8
20260905030101 66 205 0.0 0.0 0.00 0.00 0.00 88 1014.8
20260905024557 67 205 0.0 0.0 0.00 0.00 0.00 89 1014.8
20260905023056 67 204 0.0 0.0 0.00 0.00 0.00 89 1014.7
20260905021555 66 204 0.0 0.0 0.00 0.00 0.00 89 1014.9
20260905020055 66 204 0.0 0.0 0.00 0.00 0.00 89 1015.0
20260905014553 66 204 0.0 2.0 0.00 0.00 0.00 89 1014.9
20260905013053 66 204 0.0 0.0 0.00 0.00 0.00 89 1014.9
20260905011612 67 204 0.0 2.0 0.00 0.00 0.00 88 1015.0
20260905010052 67 204 0.0 1.0 0.00 0.00 0.00 89 1015.1
20260905004549 67 204 0.0 2.0 0.00 0.00 0.00 88 1015.3
20260905003054 67 204 0.0 1.0 0.00 0.00 0.00 89 1015.2
20260905001557 67 204 0.0 2.0 0.00 0.00 0.00 90 1015.3
20260905000045 67 204 0.0 0.0 0.00 0.00 0.00 91 1015.6
20260904234544 66 204 0.0 0.0 0.00 0.00 0.00 91 1015.7
20260904233053 66 204 0.0 2.0 0.00 0.00 0.00 91 1015.8
20260904231540 66 204 0.0 2.0 0.00 0.00 0.00 90 1016.0
20260904230043 67 204 0.0 2.0 0.00 0.00 0.00 89 1016.0
20260904224537 68 204 0.0 0.0 0.00 0.00 0.00 88 1016.0
20260904223037 68 204 0.0 0.0 0.00 0.00 0.00 89 1016.0
20260904221535 68 204 0.0 0.0 0.00 0.00 0.00 86 1016.0
20260904220030 69 204 0.0 0.0 0.00 0.00 0.00 87 1016.0
20260904214531 69 204 0.0 2.0 0.00 0.00 0.00 88 1015.9
20260904213029 69 204 0.0 0.0 0.00 0.00 0.00 87 1016.0
20260904211530 70 204 0.0 0.0 0.00 0.00 0.00 85 1016.0
20260904210029 70 204 0.0 0.0 0.00 0.00 0.00 85 1016.0
20260904204531 70 204 0.0 0.0 0.00 0.00 0.00 84 1016.1
20260904203032 71 204 0.0 0.0 0.00 0.00 0.00 84 1016.1
20260904201534 71 204 0.0 2.0 0.00 0.00 0.00 83 1016.2
20260904200030 71 204 0.0 2.0 0.00 0.00 0.00 83 1016.2
20260904194527 72 204 0.0 0.0 0.00 0.00 0.00 81 1016.2
20260904193027 72 204 0.0 0.0 0.00 0.00 0.00 80 1016.3
20260904191533 73 204 0.0 0.0 0.00 0.00 0.00 80 1016.3
20260904190024 74 204 0.0 0.0 0.00 0.00 0.00 78 1016.2
20260904184526 75 204 0.0 0.0 0.00 0.00 0.00 75 1016.1
20260904183023 76 204 0.0 0.0 0.00 0.00 0.00 74 1016.0
20260904181523 78 204 0.0 0.0 0.00 0.00 0.00 71 1016.0
20260904180023 79 204 0.0 0.0 0.00 0.00 0.00 68 1015.8
20260904174526 80 204 0.0 0.0 0.00 0.00 0.00 65 1015.6
20260904173023 82 204 0.0 2.0 0.00 0.00 0.00 63 1015.7
20260904171535 83 204 0.0 2.0 0.00 0.00 0.00 59 1015.6
20260904170020 84 171 1.0 3.0 0.00 0.00 0.00 58 1015.5
20260904164520 85 191 0.0 5.0 0.00 0.00 0.00 56 1015.6
20260904163021 86 187 1.0 3.0 0.00 0.00 0.00 55 1015.6
20260904161519 87 184 2.0 4.0 0.00 0.00 0.00 52 1015.6
20260904160018 87 175 2.0 5.0 0.00 0.00 0.00 52 1015.6